Time,TemperatureF,DewpointF,PressureIn,WindDirection,WindDirectionDegrees,WindSpeedMPH,WindSpeedGustMPH,Humidity,HourlyPrecipIn,Conditions,Clouds,dailyrainin,SolarRadiationWatts/m^2,SoftwareType,DateUTC
2013-03-09 00:01:00,25.0,25.0,29.80,WNW,284,3.0,10.0,98,-99.99,,,-99.99,0.000000,,2013-03-09 07:01:00,
2013-03-09 00:11:00,25.0,25.0,29.80,WNW,284,3.0,10.0,98,-99.99,,,-99.99,0.000000,,2013-03-09 07:11:00,
2013-03-09 00:21:00,25.0,25.0,29.80,West,281,3.0,13.0,98,-99.99,,,-99.99,0.000000,,2013-03-09 07:21:00,
2013-03-09 00:31:00,24.0,24.0,29.80,West,277,9.0,19.0,98,-99.99,,,-99.99,0.000000,,2013-03-09 07:31:00,
2013-03-09 00:41:00,24.0,24.0,29.80,West,277,9.0,19.0,98,-99.99,,,-99.99,0.000000,,2013-03-09 07:41:00,
2013-03-09 00:51:00,25.0,25.0,29.80,WNW,294,6.0,21.0,98,-99.99,,,-99.99,0.000000,,2013-03-09 07:51:00,
2013-03-09 01:01:00,25.0,25.0,29.80,WNW,301,9.0,19.0,98,-99.99,,,-99.99,0.000000,,2013-03-09 08:01:00,
2013-03-09 01:11:00,25.0,25.0,29.80,WNW,301,9.0,19.0,98,-99.99,,,-99.99,0.000000,,2013-03-09 08:11:00,
2013-03-09 01:21:00,25.0,25.0,29.80,NW,308,13.0,21.0,98,-99.99,,,-99.99,0.000000,,2013-03-09 08:21:00,
2013-03-09 01:31:00,24.0,24.0,29.80,West,276,13.0,22.0,98,-99.99,,,-99.99,0.000000,,2013-03-09 08:31:00,
2013-03-09 01:41:00,24.0,24.0,29.80,West,276,13.0,22.0,98,-99.99,,,-99.99,0.000000,,2013-03-09 08:41:00,
2013-03-09 01:52:00,24.0,24.0,29.80,NNW,328,11.0,22.0,98,-99.99,,,-99.99,0.000000,,2013-03-09 08:52:00,
2013-03-09 02:01:00,24.0,24.0,29.80,West,274,11.0,22.0,98,-99.99,,,-99.99,0.000000,,2013-03-09 09:01:00,
2013-03-09 02:11:00,24.0,24.0,29.80,West,274,11.0,22.0,98,-99.99,,,-99.99,0.000000,,2013-03-09 09:11:00,
2013-03-09 02:21:00,24.0,24.0,29.80,West,277,11.0,20.0,98,-99.99,,,-99.99,0.000000,,2013-03-09 09:21:00,
2013-03-09 02:31:00,24.0,24.0,29.80,WNW,291,11.0,18.0,98,-99.99,,,-99.99,0.000000,,2013-03-09 09:31:00,
2013-03-09 02:41:00,24.0,24.0,29.80,WNW,291,11.0,18.0,98,-99.99,,,-99.99,0.000000,,2013-03-09 09:41:00,
2013-03-09 02:52:00,24.0,24.0,29.80,WNW,291,6.0,18.0,98,-99.99,,,-99.99,0.000000,,2013-03-09 09:52:00,
2013-03-09 03:01:00,24.0,24.0,29.80,NW,312,39.0,39.0,98,-99.99,,,-99.99,0.000000,,2013-03-09 10:01:00,
2013-03-09 03:11:00,24.0,24.0,29.80,NW,312,39.0,39.0,98,-99.99,,,-99.99,0.000000,,2013-03-09 10:11:00,
2013-03-09 03:21:00,24.0,24.0,29.80,NW,311,7.0,16.0,98,-99.99,,,-99.99,0.000000,,2013-03-09 10:21:00,
2013-03-09 03:31:00,24.0,24.0,29.80,WSW,250,5.0,15.0,98,-99.99,,,-99.99,0.000000,,2013-03-09 10:31:00,
2013-03-09 03:41:00,24.0,24.0,29.80,WSW,250,5.0,15.0,98,-99.99,,,-99.99,0.000000,,2013-03-09 10:41:00,
2013-03-09 03:51:00,24.0,24.0,29.80,WNW,284,7.0,16.0,98,-99.99,,,-99.99,0.000000,,2013-03-09 10:51:00,
2013-03-09 04:01:00,24.0,24.0,29.80,WSW,246,6.0,14.0,98,-99.99,,,-99.99,0.000000,,2013-03-09 11:01:00,
2013-03-09 04:11:00,24.0,24.0,29.80,WSW,246,6.0,14.0,98,-99.99,,,-99.99,0.000000,,2013-03-09 11:11:00,
2013-03-09 04:21:00,24.0,24.0,29.80,WSW,245,5.0,15.0,98,-99.99,,,-99.99,0.000000,,2013-03-09 11:21:00,
2013-03-09 04:32:00,24.0,24.0,29.80,WSW,256,5.0,16.0,98,-99.99,,,-99.99,0.000000,,2013-03-09 11:32:00,
2013-03-09 04:41:00,24.0,24.0,29.80,WSW,256,5.0,16.0,98,-99.99,,,-99.99,0.000000,,2013-03-09 11:41:00,
2013-03-09 04:52:00,24.0,24.0,29.80,NW,311,5.0,12.0,98,-99.99,,,-99.99,0.000000,,2013-03-09 11:52:00,
2013-03-09 05:01:00,24.0,24.0,29.80,West,274,3.0,10.0,98,-99.99,,,-99.99,0.000000,,2013-03-09 12:01:00,
2013-03-09 05:11:00,24.0,24.0,29.80,West,274,3.0,10.0,98,-99.99,,,-99.99,0.000000,,2013-03-09 12:11:00,
2013-03-09 05:21:00,24.0,24.0,29.80,WNW,300,3.0,12.0,98,-99.99,,,-99.99,0.000000,,2013-03-09 12:21:00,
2013-03-09 05:31:00,24.0,24.0,29.80,WNW,291,3.0,10.0,98,-99.99,,,-99.99,0.000000,,2013-03-09 12:31:00,
2013-03-09 05:42:00,24.0,24.0,29.80,WNW,291,3.0,10.0,98,-99.99,,,-99.99,0.000000,,2013-03-09 12:42:00,
2013-03-09 05:52:00,24.0,24.0,29.80,WNW,285,3.0,10.0,98,-99.99,,,-99.99,0.000000,,2013-03-09 12:52:00,
2013-03-09 06:02:00,24.0,24.0,29.80,West,259,1.0,13.0,98,-99.99,,,-99.99,0.000000,,2013-03-09 13:02:00,
2013-03-09 06:11:00,24.0,24.0,29.80,West,259,1.0,13.0,98,-99.99,,,-99.99,0.000000,,2013-03-09 13:11:00,
2013-03-09 06:21:00,24.0,24.0,29.80,West,281,5.0,11.0,98,-99.99,,,-99.99,0.000000,,2013-03-09 13:21:00,
2013-03-09 06:31:00,25.0,25.0,29.80,WNW,294,5.0,12.0,98,-99.99,,,-99.99,0.000000,,2013-03-09 13:31:00,
2013-03-09 06:41:00,25.0,25.0,29.80,WNW,294,5.0,12.0,98,-99.99,,,-99.99,0.000000,,2013-03-09 13:41:00,
2013-03-09 06:51:00,25.0,25.0,29.80,WNW,298,3.0,13.0,98,-99.99,,,-99.99,0.000000,,2013-03-09 13:51:00,
2013-03-09 07:01:00,25.0,25.0,29.80,NW,319,3.0,10.0,98,-99.99,,,-99.99,0.000000,,2013-03-09 14:01:00,
2013-03-09 07:11:00,25.0,25.0,29.80,NW,319,3.0,10.0,98,-99.99,,,-99.99,0.000000,,2013-03-09 14:11:00,
2013-03-09 07:21:00,25.0,25.0,29.83,West,278,4.0,10.0,98,-99.99,,,-99.99,0.000000,,2013-03-09 14:21:00,
2013-03-09 07:31:00,25.0,25.0,29.83,West,276,4.0,10.0,98,-99.99,,,-99.99,0.000000,,2013-03-09 14:31:00,
2013-03-09 07:41:00,25.0,25.0,29.83,West,276,4.0,10.0,98,-99.99,,,-99.99,0.000000,,2013-03-09 14:41:00,
2013-03-09 07:52:00,26.0,26.0,29.83,WSW,255,4.0,4.0,98,-99.99,,,-99.99,16.000000,,2013-03-09 14:52:00,
2013-03-09 08:01:00,26.0,26.0,29.83,WNW,301,2.0,7.0,98,-99.99,,,-99.99,16.000000,,2013-03-09 15:01:00,
2013-03-09 08:11:00,26.0,26.0,29.83,WNW,301,2.0,7.0,98,-99.99,,,-99.99,16.000000,,2013-03-09 15:11:00,
2013-03-09 08:22:00,26.0,26.0,29.83,West,271,2.0,7.0,98,-99.99,,,-99.99,33.000000,,2013-03-09 15:22:00,
2013-03-09 08:31:00,26.0,26.0,29.83,West,264,2.0,9.0,98,-99.99,,,-99.99,33.000000,,2013-03-09 15:31:00,
2013-03-09 08:42:00,26.0,26.0,29.83,West,264,2.0,9.0,98,-99.99,,,-99.99,33.000000,,2013-03-09 15:42:00,
2013-03-09 08:52:00,26.0,26.0,29.83,West,271,2.0,7.0,98,-99.99,,,-99.99,49.000000,,2013-03-09 15:52:00,
2013-03-09 09:01:00,26.0,26.0,29.83,WNW,285,1.0,8.0,98,-99.99,,,-99.99,49.000000,,2013-03-09 16:01:00,
2013-03-09 09:11:00,26.0,26.0,29.83,WNW,285,1.0,8.0,98,-99.99,,,-99.99,49.000000,,2013-03-09 16:11:00,
2013-03-09 09:21:00,26.0,26.0,29.85,WSW,250,1.0,10.0,98,-99.99,,,-99.99,88.000000,,2013-03-09 16:21:00,
2013-03-09 09:31:00,26.0,26.0,29.85,WSW,240,1.0,11.0,98,-99.99,,,-99.99,88.000000,,2013-03-09 16:31:00,
2013-03-09 09:41:00,26.0,26.0,29.85,WSW,240,1.0,11.0,98,-99.99,,,-99.99,88.000000,,2013-03-09 16:41:00,
2013-03-09 09:51:00,26.0,26.0,29.83,WSW,255,2.0,9.0,98,-99.99,,,-99.99,126.000000,,2013-03-09 16:51:00,
2013-03-09 10:01:00,26.0,26.0,29.83,WSW,257,2.0,9.0,98,-99.99,,,-99.99,126.000000,,2013-03-09 17:01:00,
2013-03-09 10:11:00,26.0,26.0,29.83,WSW,257,2.0,9.0,98,-99.99,,,-99.99,126.000000,,2013-03-09 17:11:00,
2013-03-09 10:22:00,26.0,26.0,29.85,West,267,2.0,9.0,98,-99.99,,,-99.99,110.000000,,2013-03-09 17:22:00,
2013-03-09 10:32:00,27.0,27.0,29.85,WNW,301,1.0,9.0,98,-99.99,,,-99.99,110.000000,,2013-03-09 17:32:00,
2013-03-09 10:42:00,27.0,27.0,29.85,WNW,301,1.0,9.0,98,-99.99,,,-99.99,110.000000,,2013-03-09 17:42:00,
2013-03-09 10:52:00,27.0,27.0,29.85,West,280,1.0,8.0,98,-99.99,,,-99.99,126.000000,,2013-03-09 17:52:00,
2013-03-09 11:01:00,27.0,27.0,29.85,WNW,301,1.0,10.0,98,-99.99,,,-99.99,126.000000,,2013-03-09 18:01:00,
2013-03-09 11:11:00,27.0,27.0,29.85,WNW,301,1.0,10.0,98,-99.99,,,-99.99,126.000000,,2013-03-09 18:11:00,
2013-03-09 11:21:00,27.0,27.0,29.85,NW,305,1.0,9.0,98,-99.99,,,-99.99,214.000000,,2013-03-09 18:21:00,
2013-03-09 11:31:00,27.0,27.0,29.85,WNW,291,1.0,7.0,98,-99.99,,,-99.99,214.000000,,2013-03-09 18:31:00,
2013-03-09 11:42:00,27.0,27.0,29.85,WNW,291,1.0,7.0,98,-99.99,,,-99.99,214.000000,,2013-03-09 18:42:00,
2013-03-09 11:51:00,28.0,28.0,29.85,West,271,1.0,1.0,98,-99.99,,,-99.99,198.000000,,2013-03-09 18:51:00,
2013-03-09 12:01:00,28.0,28.0,29.85,NW,307,1.0,5.0,98,-99.99,,,-99.99,198.000000,,2013-03-09 19:01:00,
2013-03-09 12:11:00,28.0,28.0,29.85,NW,307,1.0,5.0,98,-99.99,,,-99.99,198.000000,,2013-03-09 19:11:00,
2013-03-09 12:21:00,28.0,28.0,29.85,WNW,302,1.0,3.0,98,-99.99,,,-99.99,176.000000,,2013-03-09 19:21:00,
2013-03-09 12:31:00,28.0,28.0,29.85,West,278,1.0,6.0,98,-99.99,,,-99.99,176.000000,,2013-03-09 19:31:00,
2013-03-09 12:41:00,28.0,28.0,29.85,West,278,1.0,6.0,98,-99.99,,,-99.99,176.000000,,2013-03-09 19:41:00,
2013-03-09 12:51:00,27.0,27.0,29.85,West,273,1.0,7.0,98,-99.99,,,-99.99,176.000000,,2013-03-09 19:51:00,
2013-03-09 13:01:00,28.0,28.0,29.85,NW,308,1.0,8.0,98,-99.99,,,-99.99,176.000000,,2013-03-09 20:01:00,
2013-03-09 13:11:00,28.0,28.0,29.85,NW,308,1.0,8.0,98,-99.99,,,-99.99,176.000000,,2013-03-09 20:11:00,
2013-03-09 13:21:00,28.0,28.0,29.85,WNW,300,1.0,9.0,98,-99.99,,,-99.99,231.000000,,2013-03-09 20:21:00,
2013-03-09 13:31:00,28.0,28.0,29.85,WNW,300,1.0,9.0,98,-99.99,,,-99.99,231.000000,,2013-03-09 20:31:00,
2013-03-09 13:41:00,28.0,28.0,29.85,WNW,300,1.0,9.0,98,-99.99,,,-99.99,231.000000,,2013-03-09 20:41:00,
2013-03-09 13:52:00,29.0,29.0,29.85,NW,321,1.0,6.0,98,-99.99,,,-99.99,319.000000,,2013-03-09 20:52:00,
2013-03-09 14:01:00,30.0,29.0,29.85,NW,322,1.0,2.0,98,-99.99,,,-99.99,319.000000,,2013-03-09 21:01:00,
2013-03-09 14:11:00,30.0,29.0,29.85,NW,322,1.0,2.0,98,-99.99,,,-99.99,319.000000,,2013-03-09 21:11:00,
2013-03-09 14:21:00,30.0,29.0,29.85,NW,323,1.0,1.0,98,-99.99,,,-99.99,346.000000,,2013-03-09 21:21:00,
2013-03-09 14:31:00,29.0,29.0,29.85,NW,321,1.0,2.0,98,-99.99,,,-99.99,346.000000,,2013-03-09 21:31:00,
2013-03-09 14:41:00,29.0,29.0,29.85,NW,321,1.0,2.0,98,-99.99,,,-99.99,346.000000,,2013-03-09 21:41:00,
2013-03-09 14:52:00,31.0,31.0,29.85,NNW,330,1.0,4.0,98,-99.99,,,-99.99,379.000000,,2013-03-09 21:52:00,
2013-03-09 15:01:00,30.0,29.0,29.85,WNW,295,1.0,1.0,98,-99.99,,,-99.99,379.000000,,2013-03-09 22:01:00,
2013-03-09 15:11:00,30.0,29.0,29.85,WNW,295,1.0,1.0,98,-99.99,,,-99.99,379.000000,,2013-03-09 22:11:00,
2013-03-09 15:21:00,29.0,29.0,29.85,NNW,345,0.0,8.0,98,-99.99,,,-99.99,280.000000,,2013-03-09 22:21:00,
2013-03-09 15:32:00,29.0,29.0,29.85,NNW,345,0.0,7.0,98,-99.99,,,-99.99,280.000000,,2013-03-09 22:32:00,
2013-03-09 15:41:00,29.0,29.0,29.85,NNW,345,0.0,7.0,98,-99.99,,,-99.99,280.000000,,2013-03-09 22:41:00,
2013-03-09 15:51:00,29.0,29.0,29.85,NNW,345,0.0,3.0,98,-99.99,,,-99.99,77.000000,,2013-03-09 22:51:00,
2013-03-09 16:01:00,29.0,29.0,29.85,NNW,345,0.0,0.0,98,-99.99,,,-99.99,77.000000,,2013-03-09 23:01:00,
2013-03-09 16:11:00,29.0,29.0,29.85,NNW,345,0.0,0.0,98,-99.99,,,-99.99,77.000000,,2013-03-09 23:11:00,
2013-03-09 16:21:00,28.0,28.0,29.85,NNW,345,0.0,6.0,98,-99.99,,,-99.99,60.000000,,2013-03-09 23:21:00,
2013-03-09 16:32:00,29.0,29.0,29.85,NNW,345,0.0,6.0,98,-99.99,,,-99.99,60.000000,,2013-03-09 23:32:00,
2013-03-09 16:41:00,29.0,29.0,29.85,NNW,345,0.0,6.0,98,-99.99,,,-99.99,60.000000,,2013-03-09 23:41:00,
2013-03-09 16:52:00,29.0,29.0,29.85,NNW,345,0.0,7.0,98,-99.99,,,-99.99,77.000000,,2013-03-09 23:52:00,
2013-03-09 17:01:00,30.0,29.0,29.85,NNW,345,0.0,4.0,98,-99.99,,,-99.99,77.000000,,2013-03-10 00:01:00,
2013-03-09 17:11:00,30.0,29.0,29.85,NNW,345,0.0,4.0,98,-99.99,,,-99.99,77.000000,,2013-03-10 00:11:00,
2013-03-09 17:22:00,29.0,29.0,29.88,NNW,345,0.0,4.0,98,-99.99,,,-99.99,71.000000,,2013-03-10 00:22:00,
2013-03-09 17:31:00,29.0,29.0,29.88,NNW,345,0.0,7.0,98,-99.99,,,-99.99,71.000000,,2013-03-10 00:31:00,
2013-03-09 17:42:00,29.0,29.0,29.88,NNW,345,0.0,7.0,98,-99.99,,,-99.99,71.000000,,2013-03-10 00:42:00,
2013-03-09 17:51:00,29.0,29.0,29.88,NNW,345,0.0,2.0,98,-99.99,,,-99.99,22.000000,,2013-03-10 00:51:00,
2013-03-09 18:01:00,29.0,29.0,29.88,NNW,345,0.0,7.0,98,-99.99,,,-99.99,22.000000,,2013-03-10 01:01:00,
2013-03-09 18:11:00,29.0,29.0,29.88,NNW,345,0.0,7.0,98,-99.99,,,-99.99,22.000000,,2013-03-10 01:11:00,
2013-03-09 18:21:00,29.0,29.0,29.88,NNW,345,0.0,6.0,98,-99.99,,,-99.99,5.000000,,2013-03-10 01:21:00,
2013-03-09 18:31:00,29.0,29.0,29.88,NNW,345,0.0,5.0,98,-99.99,,,-99.99,5.000000,,2013-03-10 01:31:00,
2013-03-09 18:41:00,29.0,29.0,29.88,NNW,345,0.0,5.0,98,-99.99,,,-99.99,5.000000,,2013-03-10 01:41:00,
2013-03-09 18:51:00,29.0,29.0,29.91,NNW,345,0.0,1.0,98,-99.99,,,-99.99,0.000000,,2013-03-10 01:51:00,
2013-03-09 19:01:00,29.0,29.0,29.91,NNW,345,0.0,0.0,98,-99.99,,,-99.99,0.000000,,2013-03-10 02:01:00,
2013-03-09 19:11:00,29.0,29.0,29.91,NNW,345,0.0,0.0,98,-99.99,,,-99.99,0.000000,,2013-03-10 02:11:00,
2013-03-09 19:22:00,29.0,29.0,29.91,NNW,345,0.0,6.0,98,-99.99,,,-99.99,0.000000,,2013-03-10 02:22:00,
2013-03-09 19:31:00,29.0,29.0,29.91,NNW,345,0.0,4.0,98,-99.99,,,-99.99,0.000000,,2013-03-10 02:31:00,
2013-03-09 19:41:00,29.0,29.0,29.91,NNW,345,0.0,4.0,98,-99.99,,,-99.99,0.000000,,2013-03-10 02:41:00,
2013-03-09 19:52:00,29.0,29.0,29.91,NNW,345,0.0,3.0,98,-99.99,,,-99.99,0.000000,,2013-03-10 02:52:00,
2013-03-09 20:01:00,29.0,29.0,29.91,NNW,345,0.0,5.0,98,-99.99,,,-99.99,0.000000,,2013-03-10 03:01:00,
2013-03-09 20:11:00,29.0,29.0,29.91,NNW,345,0.0,8.0,98,-99.99,,,-99.99,0.000000,,2013-03-10 03:11:00,
2013-03-09 20:21:00,29.0,29.0,29.91,NNW,345,0.0,8.0,98,-99.99,,,-99.99,0.000000,,2013-03-10 03:21:00,
2013-03-09 20:31:00,29.0,29.0,29.91,NNW,345,0.0,4.0,98,-99.99,,,-99.99,0.000000,,2013-03-10 03:31:00,
2013-03-09 20:42:00,29.0,29.0,29.91,NNW,345,0.0,4.0,98,-99.99,,,-99.99,0.000000,,2013-03-10 03:42:00,
2013-03-09 20:52:00,29.0,29.0,29.91,NNW,345,0.0,2.0,98,-99.99,,,-99.99,0.000000,,2013-03-10 03:52:00,
2013-03-09 21:01:00,30.0,29.0,29.91,NNW,345,0.0,0.0,98,-99.99,,,-99.99,0.000000,,2013-03-10 04:01:00,
2013-03-09 21:11:00,30.0,29.0,29.91,NNW,345,0.0,0.0,98,-99.99,,,-99.99,0.000000,,2013-03-10 04:11:00,
2013-03-09 21:21:00,29.0,29.0,29.94,NNW,345,0.0,0.0,98,-99.99,,,-99.99,0.000000,,2013-03-10 04:21:00,
2013-03-09 21:31:00,29.0,29.0,29.94,NNW,345,0.0,3.0,98,-99.99,,,-99.99,0.000000,,2013-03-10 04:31:00,
2013-03-09 21:41:00,29.0,29.0,29.94,NNW,345,0.0,3.0,98,-99.99,,,-99.99,0.000000,,2013-03-10 04:41:00,
2013-03-09 21:51:00,29.0,29.0,29.94,NNW,345,0.0,4.0,98,-99.99,,,-99.99,0.000000,,2013-03-10 04:51:00,
2013-03-09 22:01:00,29.0,29.0,29.94,NNW,345,0.0,0.0,98,-99.99,,,-99.99,0.000000,,2013-03-10 05:01:00,
2013-03-09 22:11:00,29.0,29.0,29.94,NNW,345,0.0,0.0,98,-99.99,,,-99.99,0.000000,,2013-03-10 05:11:00,
2013-03-09 22:21:00,29.0,29.0,29.94,NNW,345,0.0,6.0,98,-99.99,,,-99.99,0.000000,,2013-03-10 05:21:00,
2013-03-09 22:31:00,29.0,29.0,29.94,NNW,345,0.0,6.0,98,-99.99,,,-99.99,0.000000,,2013-03-10 05:31:00,
2013-03-09 22:42:00,29.0,29.0,29.94,NNW,345,0.0,6.0,98,-99.99,,,-99.99,0.000000,,2013-03-10 05:42:00,
2013-03-09 22:52:00,29.0,29.0,29.94,NNW,345,0.0,5.0,98,-99.99,,,-99.99,0.000000,,2013-03-10 05:52:00,
2013-03-09 23:01:00,30.0,29.0,29.94,NNW,345,0.0,11.0,98,-99.99,,,-99.99,0.000000,,2013-03-10 06:01:00,
2013-03-09 23:11:00,30.0,29.0,29.94,NNW,345,0.0,11.0,98,-99.99,,,-99.99,0.000000,,2013-03-10 06:11:00,
2013-03-09 23:21:00,29.0,29.0,29.94,NNW,345,1.0,8.0,98,-99.99,,,-99.99,0.000000,,2013-03-10 06:21:00,
2013-03-09 23:32:00,29.0,29.0,29.94,NNW,345,3.0,11.0,98,-99.99,,,-99.99,0.000000,,2013-03-10 06:32:00,
2013-03-09 23:41:00,29.0,29.0,29.94,NNW,345,3.0,11.0,98,-99.99,,,-99.99,0.000000,,2013-03-10 06:41:00,
2013-03-09 23:51:00,29.0,29.0,29.94,NNW,345,3.0,10.0,98,-99.99,,,-99.99,0.000000,,2013-03-10 06:51:00,